Location: Unspecified
(0.0000°N, 0.0000°E)
Time: 13:34:39
(UTC+00:00)

SKYMED 2 - Visible Passes

Search period start: 16 August 2017 00:00
Search period end: 26 August 2017 00:00
Orbit: 621 x 623 km, 97.9° (Epoch: 16 August)

Date Brightness Start Highest point End Pass type
(mag) Time Alt. Az. Time Alt. Az. Time Alt. Az.
16 Aug 5.1 05:18:53 10° SSE 05:22:59 42° ENE 05:27:03 10° N visible
17 Aug 3.8 05:36:37 10° SSE 05:40:58 79° ENE 05:45:16 10° N visible
19 Aug 7.3 04:40:06 10° E 04:41:01 11° ENE 04:41:57 10° ENE visible
19 Aug 6.6 18:22:25 10° NNW 18:25:49 23° WNW 18:29:14 10° SW visible
20 Aug 6.6 04:55:53 10° SE 04:58:59 19° ENE 05:02:05 10° NNE visible
20 Aug 7.3 18:41:52 10° NW 18:43:47 13° WNW 18:45:44 10° WSW visible
21 Aug 5.5 05:13:01 10° SE 05:16:58 34° ENE 05:20:53 10° NNE visible
22 Aug 4.2 05:30:38 10° SSE 05:34:56 64° E 05:39:12 10° N visible
25 Aug 6.8 04:50:18 10° ESE 04:52:57 16° ENE 04:55:35 10° NE visible
25 Aug 7.0 18:35:10 10° NW 18:37:46 16° WNW 18:40:21 10° WSW visible
